Simultaneous Nadir Overpasses (SNOs) Predictions

Prediction of SNOs between GOES-16 and NOAA-20 Satellite Orbit:

Table of predicted SNOs for the next 14.0 days since TLE Epoch: 8/5/2023
Index Date Time (GOES-16) GOES-16 Lat,Lon NOAA-20 Lat,Lon Distance(km) Time Diff (sec)
1 08/06/2023 06:33:31 -0.00, -75.21 0.28, -76.60 157.46 80
2 08/07/2023 06:12:05 -0.00, -75.23 -0.69, -72.06 360.52 80
3 08/08/2023 18:34:01 0.00, -75.26 -0.48, -77.37 240.79 80
4 08/09/2023 18:17:57 -0.00, -75.27 0.55, -72.84 277.53 80
5 08/11/2023 06:39:44 0.01, -75.30 0.64, -78.11 320.59 80
6 08/12/2023 06:18:20 0.01, -75.32 -0.39, -73.58 197.90 80
7 08/13/2023 18:40:15 -0.01, -75.35 -0.83, -78.88 402.60 80
8 08/14/2023 18:24:11 -0.01, -75.38 0.21, -74.36 116.40 80
9 08/16/2023 06:45:58 0.01, -75.41 0.98, -79.62 480.43 80
10 08/17/2023 06:24:34 0.01, -75.44 -0.06, -75.10 38.93 80
